EZY94QE EGCC-EGNS

Flight info

Callsign EZY94QE
Flight time 0h 26m
Altitude 16000
Route ASMIM L975 WAL M146 LUSOD DCT IOM
Aircraft A320/M-SDE3FGHIRWY/LB1

Departure

Time 2026-05-04 10:57
Airport Manchester Airport (EGCC)

Arrival

Time 2026-05-04 11:23
Airport Isle of Man Airport (EGNS)
Time Latitude Longitude Altitude Speed Heading
2026-05-04 10:16 53.36917 -2.28740 255 ft 0 kts 135°
2026-05-04 10:22 53.36918 -2.28740 255 ft 0 kts 135°
2026-05-04 10:40 53.36921 -2.28746 255 ft 4 kts 135°
2026-05-04 10:40 53.36938 -2.28774 255 ft 2 kts 134°
2026-05-04 10:41 53.36953 -2.28790 255 ft 4 kts 206°
2026-05-04 10:41 53.36967 -2.28773 255 ft 0 kts 225°
2026-05-04 10:41 53.36954 -2.28795 255 ft 1 kts 225°
2026-05-04 10:41 53.36953 -2.28796 255 ft 0 kts 225°
2026-05-04 10:45 53.36942 -2.28815 255 ft 3 kts 225°
2026-05-04 10:45 53.36932 -2.28832 255 ft 2 kts 225°
2026-05-04 10:46 53.36918 -2.28854 255 ft 5 kts 225°
2026-05-04 10:46 53.36883 -2.28914 255 ft 9 kts 225°
2026-05-04 10:46 53.36840 -2.28984 255 ft 8 kts 224°
2026-05-04 10:46 53.36794 -2.29028 255 ft 8 kts 201°
2026-05-04 10:47 53.36743 -2.29029 255 ft 8 kts 148°
2026-05-04 10:47 53.36693 -2.28951 255 ft 11 kts 135°
2026-05-04 10:47 53.36639 -2.28892 255 ft 8 kts 158°
2026-05-04 10:47 53.36599 -2.28838 255 ft 8 kts 125°
2026-05-04 10:49 53.36325 -2.28437 255 ft 9 kts 137°
2026-05-04 10:49 53.36273 -2.28349 255 ft 12 kts 135°
2026-05-04 10:50 53.36213 -2.28249 255 ft 12 kts 135°
2026-05-04 10:51 53.35762 -2.27872 248 ft 14 kts 185°
2026-05-04 10:52 53.35663 -2.27888 243 ft 11 kts 186°
2026-05-04 10:52 53.35601 -2.27950 239 ft 12 kts 230°
2026-05-04 10:52 53.35545 -2.28062 236 ft 14 kts 226°
2026-05-04 10:54 53.34903 -2.28936 223 ft 17 kts 226°
2026-05-04 10:54 53.34833 -2.29048 219 ft 13 kts 214°
2026-05-04 10:56 53.34938 -2.28400 233 ft 90 kts 51°
2026-05-04 10:56 53.35458 -2.27325 248 ft 144 kts 51°
2026-05-04 10:56 53.36145 -2.25895 650 ft 160 kts 51°
2026-05-04 10:57 53.36839 -2.24448 1422 ft 159 kts 51°
2026-05-04 10:57 53.37561 -2.22957 1872 ft 177 kts 51°
2026-05-04 10:57 53.38448 -2.21368 2230 ft 199 kts 36°
2026-05-04 10:57 53.39834 -2.20555 2611 ft 224 kts
2026-05-04 10:58 53.41370 -2.21298 3060 ft 249 kts 324°
2026-05-04 10:58 53.42404 -2.23705 3845 ft 260 kts 289°
2026-05-04 10:58 53.42869 -2.26626 4753 ft 265 kts 286°
2026-05-04 10:58 53.43499 -2.29543 5665 ft 268 kts 292°
2026-05-04 10:59 53.44248 -2.32431 6596 ft 270 kts 295°
2026-05-04 10:59 53.45061 -2.35289 7481 ft 273 kts 297°
2026-05-04 10:59 53.45913 -2.38160 8357 ft 276 kts 297°
2026-05-04 10:59 53.46714 -2.41110 9212 ft 281 kts 287°
2026-05-04 11:00 53.46900 -2.44389 10033 ft 287 kts 264°
2026-05-04 11:01 53.43975 -2.70913 14359 ft 350 kts 259°
2026-05-04 11:02 53.43531 -2.74954 15001 ft 354 kts 259°
2026-05-04 11:02 53.43080 -2.79036 15636 ft 358 kts 259°
2026-05-04 11:05 53.49396 -3.30802 16087 ft 355 kts 314°
2026-05-04 11:06 53.51121 -3.33765 16088 ft 355 kts 315°
2026-05-04 11:06 53.52846 -3.36730 16088 ft 355 kts 314°
2026-05-04 11:06 53.54569 -3.39696 16088 ft 355 kts 314°
2026-05-04 11:06 53.56294 -3.42664 16087 ft 355 kts 315°
2026-05-04 11:08 53.66539 -3.65994 16090 ft 355 kts 305°
2026-05-04 11:10 53.75934 -3.88527 14515 ft 320 kts 304°
2026-05-04 11:12 53.84729 -4.09827 11771 ft 311 kts 304°
2026-05-04 11:12 53.85960 -4.12825 11378 ft 309 kts 304°
2026-05-04 11:12 53.87185 -4.15810 10967 ft 308 kts 304°
2026-05-04 11:12 53.88408 -4.18791 10545 ft 308 kts 304°
2026-05-04 11:13 53.89630 -4.21772 10178 ft 306 kts 304°
2026-05-04 11:13 53.90820 -4.24676 10052 ft 294 kts 304°
2026-05-04 11:13 53.91970 -4.27492 9831 ft 287 kts 304°
2026-05-04 11:13 53.93096 -4.30257 9541 ft 281 kts 304°
2026-05-04 11:14 53.94080 -4.33075 9115 ft 276 kts 293°
2026-05-04 11:14 53.94762 -4.36103 8636 ft 274 kts 290°
2026-05-04 11:14 53.95389 -4.39106 8183 ft 273 kts 289°
2026-05-04 11:16 53.99687 -4.59922 5092 ft 262 kts 289°
2026-05-04 11:16 54.00175 -4.62895 4615 ft 259 kts 285°
2026-05-04 11:16 54.00589 -4.65864 4098 ft 258 kts 284°
2026-05-04 11:17 54.00990 -4.68804 3794 ft 249 kts 284°
2026-05-04 11:17 54.01374 -4.71585 3666 ft 234 kts 284°
2026-05-04 11:19 54.04347 -4.87039 2399 ft 182 kts 348°
2026-05-04 11:19 54.05597 -4.87047 2138 ft 181 kts 12°
2026-05-04 11:19 54.06619 -4.85892 2025 ft 184 kts 59°
2026-05-04 11:19 54.06771 -4.83726 2031 ft 193 kts 97°
2026-05-04 11:20 54.06683 -4.81453 2013 ft 191 kts 79°
2026-05-04 11:20 54.06888 -4.79235 2015 ft 192 kts 78°
2026-05-04 11:20 54.07080 -4.76982 1868 ft 192 kts 78°
2026-05-04 11:20 54.07258 -4.74775 1625 ft 183 kts 80°
2026-05-04 11:22 54.08291 -4.62687 43 ft 125 kts 78°
2026-05-04 11:22 54.08388 -4.61897 40 ft 73 kts 77°
2026-05-04 11:23 54.08438 -4.61491 38 ft 12 kts 78°
2026-05-04 11:23 54.08489 -4.61424 40 ft 10 kts 354°
2026-05-04 11:24 54.08517 -4.62174 48 ft 14 kts 258°
2026-05-04 11:25 54.08500 -4.62307 51 ft 9 kts 258°
2026-05-04 11:25 54.08486 -4.62422 50 ft 13 kts 258°
2026-05-04 11:25 54.08464 -4.62591 46 ft 15 kts 258°
2026-05-04 11:26 54.08422 -4.62924 43 ft 12 kts 258°
2026-05-04 11:27 54.08564 -4.63356 46 ft 3 kts 27°
2026-05-04 11:28 54.08582 -4.63329 44 ft 3 kts 45°
2026-05-04 11:28 54.08587 -4.63320 46 ft 0 kts 45°